STARLINK-1221, 45227

Orbit data source: Space-Track

STARLINK-1221, 45227 is a payload satellite owned by SpaceX/Seattle (US) in LEO that was launched on Mon, 17 Feb 2020 UTC via an FALCON 9 launch vehicle from the Air Force Eastern Test Range (AFETR). Payload-class satellites include a variety of spacecraft equipped with specific instruments for various scientific and technological missions. These include communications satellites like Starlink; space stations such as the ISS; scientific satellites like the Hubble; Earth observation satellites from companies like Planet Labs, Umbra, and HawkEye 360; GPS; miniature CubeSats for education and research; and military/defense satellites.

Loading next visibility...
Identifier
45227, 2020-012BB
Orbit
LEO
Country
Flag of USUS
Related business
Manufacturer
SpaceX/Seattle
Mission
Partially operational Commercial Communications
Bus & Motor
STARLINK, Unknown motor
Mass
260 kg wet, ~248 kg dry
Launch date (UTC)
2020-02-17 (6 years ago)
Launch vehicle
FALCON 9
Launch site
Air Force Eastern Test Range (AFETR)
Object type
Payload
Rocket body
Debris
Shape & HBR
Box + 1 Pan, 10.1 m
Radar Cross Section
13.562 m², Large (>1 m²)

Expand to show TLE details & history
Last TLE update: 11 hours ago

TLE from 11 hours ago
0 STARLINK-1221
1 45227U 20012BB  26073.77253664  .00023765  00000-0  55445-3 0  9992
2 45227  53.0644 245.5261 0003360  55.6022 304.5300 15.42123578337490
Epoch: 2026-03-14T18:32Z
TLE epoch observation values (Epoch: 2026-03-14T18:32:27.165Z)
Latitude
-0.00003°
Longitude
155.02397°
Altitude
439.439 km
Speed
7.65 km/s
True Right ascension
16h 22m 06s
True Declination
0° 00' 00"
Sunlit
Object was in daylight at epoch
Visualization orbit readout
Latitude
Unknown
Longitude
Unknown
Altitude
Unknown
Speed
Unknown
Apparent Right ascension
Unknown
Apparent Declination
Unknown
Sunlit
N/A
Visualization observer readout
Local Sidereal Time
10:31:20
Azimuth
Unknown
Elevation
Unknown
Doppler factor
Unknown
Orbital elements
Apogee altitude
442.407 km
Perigee altitude
437.825 km
Semi-major axis
6,818.253 km
Eccentricity
0.00034
Inclination
53.0644°
RAAN
245.5261°
Arg. of periapsis
55.6022°
True anomaly
304.49827°
Mean anomaly
304.53°
Eccentric anomaly
304.51414°
Mean motion
3.85508 °/min
Orbital period
93.38 mins
BSTAR
0.00055445
Loading maneuver chart data...
Computing Atmospheric mass density...
Loading historical data...
Loading historical data...
Loading historical data...
Loading historical data...
Loading historical data...
Loading historical data...
Loading historical data...

Documentation

Showing up to 5 results
|